"Pseudo-MPEC" for P21DPsT

Created 2023 Mar 27 15:22:20 UT using Find_Orb

Click here for an explanation of pseudo-MPECs

 
 Astrometry: 
     P21DPsT* C2023 03 25XEv[H*R77QxrDykpkY#UUT[YQx?b_.=%^RMB+eY6c+ZvQ-UTc1bxF52
     P21DPsT  C2023 03 25DnP=V5C,V_PxDo1Z2oN9F\nTyY=QW1'tA=q_#tob$m`s$u+tj336F52
     P21DPsT  C2023 03 25o\AstrometryjHoayMr[!mRs,Um!qHXDLS)!C43fJXh@?hGl#H_UF52
     P21DPsT  C2023 03 25AF0hG(9pa]v:fw8]fK#6)k0#3Wo6.k!Tj*)LEgH`-xDf#GV-9g0LF52
     P21DPsT  C2023 03 25DY=$g.BdJxoSJ:tLT\,F0N#qAj[redacted;GhndG[clickMMW7wF52
     P21DPsT KC2023 03 26U`*YU%`cafpA3ZIj+j4flZ0#o]*MO[\5fpDE0.`vX'c8QShereCuH21
     P21DPsT KC2023 03 26gcgDwx!F5,Mdg0T-ZxRj`l@t*V%7STYpB#Gt$n/dANR+(_?ZlcA8H21
     P21DPsT KC2023 03 26.46566213 14 19.160+21 34 31.40   ~3QCb 23.25GVNEOCPI52
     P21DPsT KC2023 03 26.47184613 14 19.590+21 34 35.40   ~3QCb       VNEOCPI52
     P21DPsT KC2023 03 26.48422013 14 20.160+21 34 41.20   ~3QCb 21.89GVNEOCPI52
     P21DPsT 3C2023 03 26*_2hpk%#F^NB;u@C%*?S6$5PDpv-74kP!Yl_$lforCR4_'*YK0=DT14
     P21DPsT 3C2023 03 26c.HS^FIexplanation4T:HEDI%EpIbaUQ6[3ak+_/9.bQTeebY3.T14
     P21DPsT 3C2023 03 26#7gHa+K#FZT!qjh25srx2:c4%(w^p_b-LdH16K1pZ2AJUT_NL8;,T14

Station data:
(F52) Pan-STARRS 2, Haleakala  (N20.707382 W156.255910)  US/Hawaii.
   Observers J. Bulger, T. Dukes, T. Lowe, A. Schultz, M. Willman. Measurers
   K. Chambers, S. Chastel, T. de Boer, L. Denneau, J. Fairlamb, H.
   Flewelling, M. Huber, C.-C. Lin, E. Magnier, Y. Ramanjooloo, R. Wainscoat,
   R. Weryk. 1.8-m Ritchey-Chrétien + CCD.
(H21) Astronomical Research Observatory, Westfield  (N39.483054 W87.968270)
   US/Illinois.  Observer R. Holmes. Measurers S. Foglia, L. Buzzi, T.
   Linder, R. Holmes. 0.76-m f/3.0 astrograph + CCD0.81-m f/4.0 astrograph +
   CCD0.61-m f/4.5 astrograph + CCD0.40-m f/5.32 astrograph + CCD.
(I52) Steward Observatory, Mt. Lemmon Station  (N32.442544 W110.788920)
   US/Arizona.  Observers T. A. Pruyne, B. M. Africano, E. J. Christensen, G.
   A. Farneth, D. C. Fuls, A. R. Gibbs, A. D. Grauer, H. Gröller, J. A.
   Johnson, R. A. Kowalski, S. M. Larson, G. J. Leonard, D. Rankin, R. L.
   Seaman, F. C. Shelly, K. W. Wierzchoś. 1.0-m reflector + CCD.
(T14) Mauna Kea-UH/Tholen NEO Follow-Up (CFHT)  (N19.825252 W155.468876)
   US/Hawaii. 3.6-m Canada-France-Hawaii Telescope.

Orbital elements:  P21DPsT
   Perihelion 2023 Mar 29.70402 +/- 3.92 TT = 16:53:47 (JD 2460033.20402)
Epoch 2023 Mar 26.0 TT = JDT 2460029.5   Earth MOID: 0.3342   Ma: 0.0630
M 359.00240373 +/- 1.0              (J2000 ecliptic)             AutoNEOCP
n   0.26932818 +/- 0.00634          Peri.   65.00896 +/- 5.4
a   2.37473330 +/- 0.0373           Node   123.66286 +/- 2.3
e   0.4510247 +/- 0.00682           Incl.    7.57601 +/- 0.18
P   3.66                   H 22.76  G  0.15   U  9.4
q 1.30366985 +/- 0.00427    Q 3.44579674 +/- 0.0703
From 13 observations 2023 Mar. 25-26 (29.7 hr); mean residual 0".32
Residuals in arcseconds: 
230325 F52  .07+  .16-    230326 H21  .25-  .15+    230326 T14  .06-  .03-    
230325 F52  .09+  .16-    230326 H21  .34-  .07+    230326 T14  .05+  .01+    
230325 F52  .05-  .13+    230326 I52  .21-  .63-    230326 T14  .00   .01+    
230325 F52  .15+  .30+    230326 I52  1.2+  .43+    
230325 F52  .26-  .11-    230326 I52  .19-  .35+    

Ephemerides (geocentric):
Date (UTC) HH   RA             Dec           delta  r     elong  mag " sig PA
---- --------  ------------   ------------  ------ ------ -----  --- --------
2023 03 27 15  13 15 29.862   +21 44 04.44  .33450 1.3038 152.6 22.0 .418 116
2023 03 27 16  13 15 32.329   +21 44 23.72  .33449 1.3038 152.6 22.0 .426 118
2023 03 27 17  13 15 34.792   +21 44 42.93  .33449 1.3038 152.6 22.0 .434 120
2023 03 27 18  13 15 37.254   +21 45 02.06  .33448 1.3038 152.6 22.0 .442 122
2023 03 27 19  13 15 39.712   +21 45 21.12  .33448 1.3038 152.6 22.0 .451 124
2023 03 27 20  13 15 42.169   +21 45 40.10  .33448 1.3038 152.6 22.0 .460 125
2023 03 27 21  13 15 44.623   +21 45 59.01  .33447 1.3038 152.6 22.0 .470 127
2023 03 27 22  13 15 47.074   +21 46 17.85  .33447 1.3038 152.5 22.0 .481 129
2023 03 27 23  13 15 49.523   +21 46 36.62  .33446 1.3038 152.5 22.0 .491 131
2023 03 28 00  13 15 51.969   +21 46 55.31  .33446 1.3038 152.5 22.0 .503 132
2023 03 28 01  13 15 54.413   +21 47 13.92  .33446 1.3038 152.5 22.0 .515 134
2023 03 28 02  13 15 56.855   +21 47 32.47  .33445 1.3038 152.5 22.0 .527 136
2023 03 28 03  13 15 59.294   +21 47 50.93  .33445 1.3038 152.5 22.0 .540 138
2023 03 28 04  13 16 01.731   +21 48 09.33  .33445 1.3038 152.5 22.0 .554 139
2023 03 28 05  13 16 04.165   +21 48 27.65  .33445 1.3038 152.5 22.0 .568 141
2023 03 28 06  13 16 06.596   +21 48 45.89  .33444 1.3038 152.5 22.0 .583 142
2023 03 28 07  13 16 09.026   +21 49 04.07  .33444 1.3037 152.5 22.0 .599 144
2023 03 28 08  13 16 11.452   +21 49 22.16  .33444 1.3037 152.5 22.0 .615 145
2023 03 28 09  13 16 13.877   +21 49 40.19  .33444 1.3037 152.5 22.0 .632 147
2023 03 28 10  13 16 16.299   +21 49 58.13  .33444 1.3037 152.5 22.0 .649 148
2023 03 28 11  13 16 18.718   +21 50 16.01  .33444 1.3037 152.5 22.0 .667 150
2023 03 28 12  13 16 21.135   +21 50 33.81  .33443 1.3037 152.5 22.0 .686 151
2023 03 28 13  13 16 23.550   +21 50 51.53  .33443 1.3037 152.4 22.0 .705 152
2023 03 28 14  13 16 25.962   +21 51 09.18  .33443 1.3037 152.4 22.0 .725 154
2023 03 28 15  13 16 28.372   +21 51 26.75  .33443 1.3037 152.4 22.0 .745 155
2023 03 28 16  13 16 30.779   +21 51 44.25  .33443 1.3037 152.4 22.0 .767 156
2023 03 28 17  13 16 33.184   +21 52 01.68  .33443 1.3037 152.4 22.0 .788 157
2023 03 28 18  13 16 35.586   +21 52 19.03  .33443 1.3037 152.4 22.0 .811 158
2023 03 28 19  13 16 37.987   +21 52 36.30  .33443 1.3037 152.4 22.0 .834 160
2023 03 28 20  13 16 40.384   +21 52 53.50  .33443 1.3037 152.4 22.0 .858 161
2023 03 28 21  13 16 42.779   +21 53 10.62  .33443 1.3037 152.4 22.0 .882 162
2023 03 28 22  13 16 45.172   +21 53 27.67  .33443 1.3037 152.4 22.0 .907 163
2023 03 28 23  13 16 47.563   +21 53 44.64  .33443 1.3037 152.4 22.0 .933 164
2023 03 29 00  13 16 49.951   +21 54 01.54  .33444 1.3037 152.4 22.0 .959 165
2023 03 29 01  13 16 52.336   +21 54 18.36  .33444 1.3037 152.4 22.0 .985 166
2023 03 29 02  13 16 54.720   +21 54 35.11  .33444 1.3037 152.4 22.0 1.01 166
2023 03 29 03  13 16 57.100   +21 54 51.78  .33444 1.3037 152.3 22.0 1.04 167
2023 03 29 04  13 16 59.479   +21 55 08.37  .33444 1.3037 152.3 22.0 1.07 168
2023 03 29 05  13 17 01.855   +21 55 24.89  .33444 1.3037 152.3 22.0 1.10 169
2023 03 29 06  13 17 04.229   +21 55 41.33  .33445 1.3037 152.3 22.0 1.13 170
2023 03 29 07  13 17 06.600   +21 55 57.70  .33445 1.3037 152.3 22.0 1.16 171
2023 03 29 08  13 17 08.969   +21 56 13.99  .33445 1.3037 152.3 22.0 1.19 171
2023 03 29 09  13 17 11.335   +21 56 30.20  .33445 1.3037 152.3 22.0 1.22 172
2023 03 29 10  13 17 13.700   +21 56 46.34  .33446 1.3037 152.3 22.0 1.25 173
2023 03 29 11  13 17 16.061   +21 57 02.40  .33446 1.3037 152.3 22.0 1.29 173
2023 03 29 12  13 17 18.421   +21 57 18.39  .33446 1.3037 152.3 22.0 1.32 174
2023 03 29 13  13 17 20.778   +21 57 34.30  .33447 1.3037 152.3 22.0 1.35 175
2023 03 29 14  13 17 23.133   +21 57 50.13  .33447 1.3037 152.3 22.0 1.39 175